Time,TemperatureF,DewpointF,PressureIn,WindDirection,WindDirectionDegrees,WindSpeedMPH,WindSpeedGustMPH,Humidity,HourlyPrecipIn,Conditions,Clouds,dailyrainin,SoftwareType,DateUTC
2013-08-09 00:02:00,74.0,72.0,29.85,North,0,0.0,0.0,94,0.00,,,0.37,,2013-08-09 05:02:00,
2013-08-09 00:11:00,74.0,72.0,29.85,North,0,0.0,0.0,95,0.00,,,0.37,,2013-08-09 05:11:00,
2013-08-09 00:22:00,74.0,72.0,29.86,North,0,0.0,0.0,95,0.00,,,0.37,,2013-08-09 05:22:00,
2013-08-09 00:32:00,74.0,72.0,29.85,North,0,0.0,0.0,95,0.00,,,0.37,,2013-08-09 05:32:00,
2013-08-09 00:43:00,74.0,72.0,29.85,North,0,0.0,0.0,95,0.00,,,0.37,,2013-08-09 05:43:00,
2013-08-09 00:52:00,74.0,72.0,29.85,North,0,0.0,0.0,95,0.00,,,0.37,,2013-08-09 05:52:00,
2013-08-09 01:01:00,73.0,71.0,29.85,North,0,0.0,0.0,95,0.00,,,0.37,,2013-08-09 06:01:00,
2013-08-09 01:11:00,73.0,72.0,29.85,North,0,0.0,0.0,96,0.00,,,0.37,,2013-08-09 06:11:00,
2013-08-09 01:21:00,73.0,72.0,29.85,North,0,0.0,0.0,96,0.00,,,0.37,,2013-08-09 06:21:00,
2013-08-09 01:32:00,73.0,72.0,29.86,North,0,0.0,0.0,96,0.00,,,0.37,,2013-08-09 06:32:00,
2013-08-09 01:43:00,73.0,72.0,29.86,North,0,0.0,0.0,96,0.00,,,0.37,,2013-08-09 06:43:00,
2013-08-09 01:52:00,73.0,72.0,29.86,North,0,0.0,0.0,96,0.00,,,0.37,,2013-08-09 06:52:00,
2013-08-09 02:01:00,73.0,72.0,29.87,North,0,0.0,0.0,96,0.00,,,0.37,,2013-08-09 07:01:00,
2013-08-09 02:12:00,73.0,72.0,29.87,North,0,0.0,0.0,96,0.00,,,0.37,,2013-08-09 07:12:00,
2013-08-09 02:22:00,73.0,72.0,29.86,North,0,0.0,0.0,96,0.00,,,0.37,,2013-08-09 07:22:00,
2013-08-09 02:33:00,74.0,73.0,29.86,North,0,0.0,0.0,96,0.00,,,0.37,,2013-08-09 07:33:00,
2013-08-09 02:43:00,73.0,72.0,29.87,North,0,0.0,0.0,96,0.00,,,0.37,,2013-08-09 07:43:00,
2013-08-09 02:53:00,73.0,72.0,29.87,North,0,0.0,0.0,96,0.00,,,0.37,,2013-08-09 07:53:00,
2013-08-09 03:02:00,74.0,73.0,29.86,North,0,0.0,0.0,97,0.00,,,0.37,,2013-08-09 08:02:00,
2013-08-09 03:12:00,74.0,73.0,29.86,North,0,0.0,0.0,97,0.00,,,0.37,,2013-08-09 08:12:00,
2013-08-09 03:22:00,74.0,73.0,29.86,North,0,0.0,0.0,97,0.00,,,0.37,,2013-08-09 08:22:00,
2013-08-09 03:32:00,74.0,73.0,29.88,ESE,113,0.0,1.0,97,0.00,,,0.37,,2013-08-09 08:32:00,
2013-08-09 03:43:00,74.0,73.0,29.88,West,276,0.0,3.0,97,0.05,,,0.43,,2013-08-09 08:43:00,
2013-08-09 03:53:00,74.0,73.0,29.88,WNW,282,1.0,11.0,97,0.05,,,0.43,,2013-08-09 08:53:00,
2013-08-09 04:02:00,74.0,73.0,29.88,West,273,0.0,7.0,97,0.10,,,0.49,,2013-08-09 09:02:00,
2013-08-09 04:12:00,73.0,72.0,29.88,WNW,285,0.0,6.0,97,0.17,,,0.55,,2013-08-09 09:12:00,
2013-08-09 04:22:00,73.0,72.0,29.88,NW,304,0.0,4.0,97,0.20,,,0.57,,2013-08-09 09:22:00,
2013-08-09 04:32:00,73.0,72.0,29.87,NW,314,0.0,1.0,97,0.20,,,0.57,,2013-08-09 09:32:00,
2013-08-09 04:43:00,73.0,72.0,29.87,NW,314,0.0,1.0,97,0.15,,,0.57,,2013-08-09 09:43:00,
2013-08-09 04:52:00,73.0,72.0,29.87,NW,314,0.0,1.0,97,0.14,,,0.57,,2013-08-09 09:52:00,
2013-08-09 05:01:00,72.0,71.0,29.88,North,0,0.0,0.0,97,0.09,,,0.57,,2013-08-09 10:01:00,
2013-08-09 05:12:00,72.0,71.0,29.88,North,0,0.0,0.0,97,0.02,,,0.57,,2013-08-09 10:12:00,
2013-08-09 05:22:00,72.0,71.0,29.87,North,0,0.0,0.0,97,0.00,,,0.57,,2013-08-09 10:22:00,
2013-08-09 05:32:00,72.0,71.0,29.86,North,0,0.0,0.0,97,0.00,,,0.57,,2013-08-09 10:32:00,
2013-08-09 05:43:00,72.0,71.0,29.86,North,0,0.0,0.0,97,0.00,,,0.57,,2013-08-09 10:43:00,
2013-08-09 05:53:00,72.0,71.0,29.86,North,0,0.0,0.0,97,0.00,,,0.57,,2013-08-09 10:53:00,
2013-08-09 06:02:00,72.0,71.0,29.87,North,0,0.0,0.0,97,0.00,,,0.57,,2013-08-09 11:02:00,
2013-08-09 06:11:00,72.0,71.0,29.87,North,0,0.0,0.0,97,0.00,,,0.57,,2013-08-09 11:11:00,
2013-08-09 06:22:00,72.0,71.0,29.88,West,279,0.0,1.0,97,0.00,,,0.57,,2013-08-09 11:22:00,
2013-08-09 06:33:00,72.0,72.0,29.89,North,0,0.0,0.0,100,0.00,,,0.57,,2013-08-09 11:33:00,
2013-08-09 06:43:00,72.0,72.0,29.89,North,0,0.0,0.0,100,0.00,,,0.57,,2013-08-09 11:43:00,
2013-08-09 06:53:00,72.0,72.0,29.89,North,0,0.0,0.0,100,0.00,,,0.57,,2013-08-09 11:53:00,
2013-08-09 07:02:00,72.0,72.0,29.89,North,0,0.0,0.0,100,0.00,,,0.57,,2013-08-09 12:02:00,
2013-08-09 07:12:00,72.0,72.0,29.90,North,0,0.0,0.0,100,0.00,,,0.57,,2013-08-09 12:12:00,
2013-08-09 07:22:00,72.0,72.0,29.90,North,0,0.0,0.0,100,0.00,,,0.57,,2013-08-09 12:22:00,
2013-08-09 07:32:00,72.0,72.0,29.91,North,0,0.0,0.0,100,0.00,,,0.57,,2013-08-09 12:32:00,
2013-08-09 07:43:00,73.0,73.0,29.91,North,0,0.0,0.0,100,0.00,,,0.57,,2013-08-09 12:43:00,
2013-08-09 07:52:00,73.0,73.0,29.91,North,0,0.0,0.0,100,0.00,,,0.57,,2013-08-09 12:52:00,
2013-08-09 08:01:00,73.0,73.0,29.91,North,0,0.0,0.0,99,0.00,,,0.57,,2013-08-09 13:01:00,
2013-08-09 08:12:00,74.0,74.0,29.91,West,279,0.0,2.0,99,0.00,,,0.57,,2013-08-09 13:12:00,
2013-08-09 08:23:00,74.0,74.0,29.91,West,278,0.0,2.0,99,0.00,,,0.57,,2013-08-09 13:23:00,
2013-08-09 08:32:00,74.0,74.0,29.91,West,277,0.0,1.0,99,0.00,,,0.57,,2013-08-09 13:32:00,
2013-08-09 08:43:00,74.0,74.0,29.91,West,277,0.0,1.0,99,0.00,,,0.57,,2013-08-09 13:43:00,
2013-08-09 08:52:00,75.0,75.0,29.92,South,173,0.0,1.0,99,0.00,,,0.57,,2013-08-09 13:52:00,
2013-08-09 09:02:00,75.0,75.0,29.92,South,171,0.0,2.0,99,0.00,,,0.57,,2013-08-09 14:02:00,
2013-08-09 09:11:00,75.0,75.0,29.92,South,179,0.0,5.0,100,0.00,,,0.57,,2013-08-09 14:11:00,
2013-08-09 09:22:00,76.0,76.0,29.92,South,182,0.0,2.0,100,0.00,,,0.57,,2013-08-09 14:22:00,
2013-08-09 09:33:00,76.0,76.0,29.92,South,182,0.0,2.0,100,0.00,,,0.57,,2013-08-09 14:33:00,
2013-08-09 09:43:00,77.0,76.0,29.92,South,182,0.0,3.0,97,0.00,,,0.57,,2013-08-09 14:43:00,
2013-08-09 09:53:00,77.0,76.0,29.91,South,182,0.0,1.0,96,0.00,,,0.57,,2013-08-09 14:53:00,
2013-08-09 10:02:00,78.0,76.0,29.91,South,182,0.0,1.0,95,0.00,,,0.57,,2013-08-09 15:02:00,
2013-08-09 10:11:00,78.0,75.0,29.92,South,182,0.0,2.0,91,0.00,,,0.57,,2013-08-09 15:11:00,
2013-08-09 10:22:00,79.0,75.0,29.92,South,182,0.0,1.0,87,0.00,,,0.57,,2013-08-09 15:22:00,
2013-08-09 10:33:00,80.0,75.0,29.92,North,0,0.0,0.0,84,0.00,,,0.57,,2013-08-09 15:33:00,
2013-08-09 10:44:00,82.0,75.0,29.92,North,0,0.0,0.0,80,0.00,,,0.57,,2013-08-09 15:44:00,
2013-08-09 10:53:00,82.0,74.0,29.93,SSE,154,0.0,1.0,78,0.00,,,0.57,,2013-08-09 15:53:00,
2013-08-09 11:01:00,83.0,75.0,29.93,SSE,154,0.0,2.0,77,0.00,,,0.57,,2013-08-09 16:01:00,
2013-08-09 11:11:00,83.0,74.0,29.93,SSE,154,0.0,2.0,75,0.00,,,0.57,,2013-08-09 16:11:00,
2013-08-09 11:22:00,82.0,74.0,29.93,SSE,154,0.0,2.0,77,0.00,,,0.57,,2013-08-09 16:22:00,
2013-08-09 11:32:00,83.0,75.0,29.92,SSE,155,0.0,2.0,76,0.00,,,0.57,,2013-08-09 16:32:00,
2013-08-09 11:43:00,83.0,75.0,29.92,East,99,1.0,4.0,77,0.00,,,0.57,,2013-08-09 16:43:00,
2013-08-09 11:53:00,84.0,75.0,29.92,East,87,0.0,2.0,75,0.00,,,0.57,,2013-08-09 16:53:00,
2013-08-09 12:02:00,84.0,74.0,29.92,East,86,0.0,2.0,72,0.00,,,0.57,,2013-08-09 17:02:00,
2013-08-09 12:11:00,84.0,74.0,29.92,East,79,0.0,2.0,72,0.00,,,0.57,,2013-08-09 17:11:00,
2013-08-09 12:22:00,84.0,75.0,29.92,ENE,77,0.0,2.0,74,0.00,,,0.57,,2013-08-09 17:22:00,
2013-08-09 12:33:00,84.0,75.0,29.91,ENE,77,0.0,2.0,75,0.00,,,0.57,,2013-08-09 17:33:00,
2013-08-09 12:43:00,84.0,74.0,29.91,ENE,77,0.0,2.0,72,0.00,,,0.57,,2013-08-09 17:43:00,
2013-08-09 12:52:00,85.0,75.0,29.91,ENE,77,0.0,3.0,72,0.00,,,0.57,,2013-08-09 17:52:00,
2013-08-09 13:01:00,85.0,75.0,29.91,ENE,76,0.0,3.0,73,0.00,,,0.57,,2013-08-09 18:01:00,
2013-08-09 13:11:00,86.0,76.0,29.91,ENE,77,0.0,3.0,72,0.00,,,0.57,,2013-08-09 18:11:00,
2013-08-09 13:22:00,86.0,76.0,29.90,ENE,77,0.0,3.0,72,0.00,,,0.57,,2013-08-09 18:22:00,
2013-08-09 13:32:00,86.0,76.0,29.90,NE,54,0.0,3.0,72,0.00,,,0.57,,2013-08-09 18:32:00,
2013-08-09 13:43:00,86.0,75.0,29.90,NE,42,0.0,2.0,71,0.00,,,0.57,,2013-08-09 18:43:00,
2013-08-09 13:53:00,86.0,75.0,29.90,NE,42,0.0,2.0,71,0.00,,,0.57,,2013-08-09 18:53:00,
2013-08-09 14:02:00,86.0,75.0,29.90,North,3,0.0,4.0,69,0.00,,,0.57,,2013-08-09 19:02:00,
2013-08-09 14:11:00,86.0,75.0,29.90,NW,307,1.0,4.0,69,0.00,,,0.57,,2013-08-09 19:11:00,
2013-08-09 14:22:00,86.0,75.0,29.90,WSW,243,0.0,5.0,69,0.00,,,0.57,,2013-08-09 19:22:00,
2013-08-09 14:32:00,86.0,75.0,29.89,NNW,329,0.0,3.0,69,0.00,,,0.57,,2013-08-09 19:32:00,
2013-08-09 14:43:00,86.0,75.0,29.89,WNW,284,0.0,3.0,71,0.00,,,0.57,,2013-08-09 19:43:00,
2013-08-09 14:52:00,86.0,74.0,29.90,NW,308,1.0,3.0,68,0.00,,,0.57,,2013-08-09 19:52:00,
2013-08-09 15:02:00,86.0,75.0,29.89,WNW,284,0.0,2.0,71,0.00,,,0.57,,2013-08-09 20:02:00,
2013-08-09 15:11:00,87.0,75.0,29.89,WNW,303,0.0,3.0,68,0.00,,,0.57,,2013-08-09 20:11:00,
2013-08-09 15:22:00,88.0,76.0,29.88,West,277,0.0,3.0,68,0.00,,,0.57,,2013-08-09 20:22:00,
2013-08-09 15:32:00,88.0,75.0,29.88,WSW,256,0.0,3.0,66,0.00,,,0.57,,2013-08-09 20:32:00,
2013-08-09 15:43:00,87.0,76.0,29.88,West,274,1.0,4.0,69,0.00,,,0.57,,2013-08-09 20:43:00,
2013-08-09 15:52:00,86.0,75.0,29.88,WSW,258,0.0,2.0,71,0.00,,,0.57,,2013-08-09 20:52:00,
2013-08-09 16:01:00,86.0,76.0,29.88,WSW,258,0.0,3.0,72,0.00,,,0.52,,2013-08-09 21:01:00,
2013-08-09 16:12:00,86.0,76.0,29.88,West,265,0.0,2.0,72,0.00,,,0.20,,2013-08-09 21:12:00,
2013-08-09 16:22:00,86.0,75.0,29.88,WNW,299,0.0,2.0,71,0.00,,,0.20,,2013-08-09 21:22:00,
2013-08-09 16:33:00,86.0,74.0,29.88,WNW,294,0.0,6.0,67,0.00,,,0.20,,2013-08-09 21:33:00,
2013-08-09 16:43:00,86.0,75.0,29.88,NNW,331,0.0,3.0,69,0.00,,,0.20,,2013-08-09 21:43:00,
2013-08-09 16:52:00,86.0,75.0,29.89,NW,313,0.0,3.0,70,0.00,,,0.20,,2013-08-09 21:52:00,
2013-08-09 17:01:00,85.0,75.0,29.90,NW,312,0.0,2.0,72,0.00,,,0.20,,2013-08-09 22:01:00,
2013-08-09 17:11:00,85.0,75.0,29.90,NW,322,0.0,3.0,72,0.00,,,0.20,,2013-08-09 22:11:00,
2013-08-09 17:22:00,82.0,74.0,29.90,NNE,22,2.0,14.0,76,0.00,,,0.20,,2013-08-09 22:22:00,
2013-08-09 17:32:00,80.0,73.0,29.90,NNW,345,1.0,7.0,79,0.00,,,0.20,,2013-08-09 22:32:00,
2013-08-09 17:42:00,80.0,73.0,29.90,North,350,1.0,8.0,79,0.00,,,0.20,,2013-08-09 22:42:00,
2013-08-09 17:52:00,80.0,72.0,29.90,North,355,1.0,7.0,78,0.00,,,0.20,,2013-08-09 22:52:00,
2013-08-09 18:01:00,80.0,72.0,29.89,NNE,16,0.0,5.0,77,0.00,,,0.20,,2013-08-09 23:01:00,
2013-08-09 18:11:00,80.0,71.0,29.89,North,353,0.0,7.0,75,0.00,,,0.20,,2013-08-09 23:11:00,
2013-08-09 18:22:00,80.0,72.0,29.89,North,356,0.0,5.0,76,0.00,,,0.20,,2013-08-09 23:22:00,
2013-08-09 18:32:00,80.0,72.0,29.88,North,357,0.0,6.0,76,0.00,,,0.20,,2013-08-09 23:32:00,
2013-08-09 18:43:00,80.0,72.0,29.88,NNW,348,0.0,6.0,77,0.00,,,0.20,,2013-08-09 23:43:00,
2013-08-09 18:52:00,79.0,72.0,29.89,North,9,0.0,3.0,78,0.00,,,0.20,,2013-08-09 23:52:00,
2013-08-09 19:01:00,79.0,72.0,29.91,North,10,0.0,1.0,78,0.00,,,0.20,,2013-08-10 00:01:00,
2013-08-09 19:11:00,79.0,72.0,29.91,North,10,0.0,1.0,78,0.00,,,0.20,,2013-08-10 00:11:00,
2013-08-09 19:22:00,78.0,71.0,29.91,North,11,0.0,1.0,80,0.00,,,0.20,,2013-08-10 00:22:00,
2013-08-09 19:33:00,78.0,72.0,29.91,North,0,0.0,0.0,81,0.00,,,0.20,,2013-08-10 00:33:00,
2013-08-09 19:43:00,78.0,72.0,29.91,North,0,0.0,0.0,83,0.00,,,0.20,,2013-08-10 00:43:00,
2013-08-09 19:52:00,77.0,71.0,29.91,North,0,0.0,0.0,83,0.00,,,0.20,,2013-08-10 00:52:00,
2013-08-09 20:01:00,77.0,72.0,29.91,North,0,0.0,0.0,84,0.00,,,0.20,,2013-08-10 01:01:00,
2013-08-09 20:11:00,77.0,72.0,29.91,North,0,0.0,0.0,84,0.00,,,0.20,,2013-08-10 01:11:00,
2013-08-09 20:22:00,77.0,72.0,29.91,North,0,0.0,0.0,84,0.00,,,0.20,,2013-08-10 01:22:00,
2013-08-09 20:32:00,77.0,72.0,29.91,North,0,0.0,0.0,84,0.00,,,0.20,,2013-08-10 01:32:00,
2013-08-09 20:42:00,77.0,72.0,29.91,North,0,0.0,0.0,84,0.00,,,0.20,,2013-08-10 01:42:00,
2013-08-09 20:52:00,76.0,72.0,29.92,North,0,0.0,0.0,88,0.00,,,0.20,,2013-08-10 01:52:00,
2013-08-09 21:03:00,76.0,72.0,29.92,North,0,0.0,0.0,88,0.00,,,0.20,,2013-08-10 02:03:00,
2013-08-09 21:11:00,76.0,72.0,29.92,North,0,0.0,0.0,88,0.00,,,0.20,,2013-08-10 02:11:00,
2013-08-09 21:21:00,76.0,72.0,29.92,North,0,0.0,0.0,88,0.00,,,0.20,,2013-08-10 02:21:00,
2013-08-09 21:32:00,75.0,71.0,29.92,North,0,0.0,0.0,88,0.00,,,0.20,,2013-08-10 02:32:00,
2013-08-09 21:42:00,75.0,71.0,29.92,North,0,0.0,0.0,88,0.00,,,0.20,,2013-08-10 02:42:00,
2013-08-09 21:52:00,75.0,72.0,29.92,North,0,0.0,0.0,89,0.00,,,0.20,,2013-08-10 02:52:00,
2013-08-09 22:01:00,74.0,72.0,29.95,North,0,0.0,0.0,93,0.00,,,0.20,,2013-08-10 03:01:00,
2013-08-09 22:11:00,74.0,72.0,29.95,North,0,0.0,0.0,93,0.00,,,0.20,,2013-08-10 03:11:00,
2013-08-09 22:21:00,74.0,72.0,29.95,North,0,0.0,0.0,93,0.00,,,0.20,,2013-08-10 03:21:00,
2013-08-09 22:32:00,74.0,72.0,29.95,North,0,0.0,0.0,93,0.00,,,0.20,,2013-08-10 03:32:00,
2013-08-09 22:42:00,74.0,72.0,29.96,North,0,0.0,0.0,93,0.00,,,0.20,,2013-08-10 03:42:00,
2013-08-09 22:52:00,74.0,72.0,29.96,North,0,0.0,0.0,94,0.00,,,0.20,,2013-08-10 03:52:00,
2013-08-09 23:02:00,74.0,72.0,29.96,North,0,0.0,0.0,94,0.00,,,0.20,,2013-08-10 04:02:00,
2013-08-09 23:12:00,74.0,72.0,29.96,North,0,0.0,0.0,94,0.00,,,0.20,,2013-08-10 04:12:00,
2013-08-09 23:22:00,74.0,72.0,29.96,North,0,0.0,0.0,95,0.00,,,0.20,,2013-08-10 04:22:00,
2013-08-09 23:32:00,74.0,72.0,29.96,North,0,0.0,0.0,95,0.00,,,0.20,,2013-08-10 04:32:00,
2013-08-09 23:43:00,74.0,72.0,29.96,North,0,0.0,0.0,95,0.00,,,0.20,,2013-08-10 04:43:00,
2013-08-09 23:53:00,74.0,72.0,29.96,North,0,0.0,0.0,95,0.00,,,0.20,,2013-08-10 04:53:00,